CZ-4C DEB, 43338

Orbit data source: Space-Track

CZ-4C DEB, 43338 is space debris in LEO originally from a launch on Tue, 10 Apr 2018 UTC launched from the Jiuquan Satellite Launch Center, China (JSC). Debris objects in space refer to the collection of defunct objects orbiting the Earth. Examples of debris include non-operational satellites, rocket bodies, and fragments generated from explosions, collisions, or faulty payload assembly.

Loading next visibility...
Identifier
43338, 2018-034H
Orbit
LEO
Country
Flag of CNCN / PRC
Related business
Manufacturer
Unknown
Mission
Spacecraft
Bus & Motor
Unknown
Mass
Unknown
Launch date (UTC)
2018-04-10 (8 years ago)
Launch vehicle
Unknown
Launch site
Jiuquan Satellite Launch Center, China (JSC)
Object type
Payload
Rocket body
Debris
Shape & HBR
Unknown shape, 0.1 m
Radar Cross Section
Small (<0.1 m²)

Expand to show TLE details & history
Last TLE update: 7 hours ago

TLE from 7 hours ago
0 CZ-4C DEB
1 43338U 18034H   26123.53884869 -.00000055  00000-0  48330-4 0  9995
2 43338  63.3947 214.5008 0271020   8.1191 352.4090 13.44721249395857
Epoch: 2026-05-03T12:55Z
TLE epoch observation values (Epoch: 2026-05-03T12:55:56.526Z)
Latitude
-0.00003°
Longitude
159.07431°
Altitude
892.916 km
Speed
7.505 km/s
True Right ascension
14h 18m 00s
True Declination
0° 00' 00"
Sunlit
Object was in full shadow at epoch
Visualization orbit readout
Latitude
Unknown
Longitude
Unknown
Altitude
Unknown
Speed
Unknown
Apparent Right ascension
Unknown
Apparent Declination
Unknown
Sunlit
N/A
Visualization observer readout
Local Sidereal Time
03:47:35
Azimuth
Unknown
Elevation
Unknown
Doppler factor
Unknown
Orbital elements
Apogee altitude
1,292.99 km
Perigee altitude
888.156 km
Semi-major axis
7,468.71 km
Eccentricity
0.0271
Inclination
63.3947°
RAAN
214.5008°
Arg. of periapsis
8.1191°
True anomaly
351.98451°
Mean anomaly
352.409°
Eccentric anomaly
352.19821°
Mean motion
3.3626 °/min
Orbital period
107.06 mins
BSTAR
0.00004833
Loading maneuver chart data...
Computing Atmospheric mass density...
Loading historical data...
Loading historical data...
Loading historical data...
Loading historical data...
Loading historical data...
Loading historical data...
Loading historical data...

Documentation

Showing up to 5 results
|